Regional Weather Roundup
Issued by NWS Newport/Morehead, NC

Current Version | Previous Version | Graphics & Text | Print | Product List | Glossary Off
Versions: 1 2 3 4 5 6 7 8 9 10 11 12 13 14 15 16 17 18 19 20 21 22 23 24 25 26 27 28 29 30 31 32 33 34 35 36 37 38 39 40 41 42 43 44 45 46 47 48 49 50

000
ASUS42 KMHX 290027
RWRMHX
WEATHER ROUNDUP FOR EASTERN NORTH CAROLINA
NATIONAL WEATHER SERVICE NEWPORT/MOREHEAD CITY NC
800 PM EDT SAT MAR 28 2015

NOTE: "FAIR" INDICATES FEW OR NO CLOUDS BELOW 12,000 FEET
WITH NO SIGNIFICANT WEATHER AND/OR OBSTRUCTIONS TO VISIBILITY

NCZ015>017-031-032-045>047-102-103-290100-
NORTH COAST

CITY           SKY/WX    TMP DP  RH WIND       PRES   REMARKS
EDENTON        CLEAR     38  23  55 NW3       30.15R
ELIZABETH CITY CLEAR     36  20  52 NW6       30.14R
KITTY HAWK     PTCLDY    38  21  49 NW7       30.11R
MANTEO         PTCLDY    39  19  45 NW13G24   30.13R

$$

NCZ045>047-081-094-103-104-290100-
CENTRAL COAST

CITY           SKY/WX    TMP DP  RH WIND       PRES   REMARKS
FRISCO         CLEAR     39  26  59 VRB6      30.11R
SWANQUARTER      N/A     37 N/A N/A N2        30.09R

$$

NCZ095-097-098-100-101-290100-
SOUTHERN COAST

CITY           SKY/WX    TMP DP  RH WIND       PRES   REMARKS
BEAUFORT       CLEAR     44  28  53 N10       30.12R
CEDAR ISLAND     N/A     43 N/A N/A N17G23    30.15R
JACKSONVILLE   CLEAR     44  22  41 NW12      30.13R
PINEY ISLAND   CLEAR    N/A N/A N/A N13       30.11R
WILMINGTON     CLEAR     45  27  49 NW8       30.11R


$$

NCZ011>013-027>030-043-044-078>080-089-090>093-098-290100-
COASTAL PLAIN

CITY           SKY/WX    TMP DP  RH WIND       PRES   REMARKS
AHOSKIE        PTCLDY    35  21  55 CALM      30.15R
CLINTON        CLEAR     44  22  42 NW5       30.15R
ELIZABETHTOWN  CLEAR     46  22  38 N3        30.13R
GOLDSBORO      CLEAR     43  21  42 NW3       30.12R
GREENVILLE     CLEAR     41  18  38 CALM      30.16R
HAVELOCK       CLEAR     45  20  36 NW14      30.13R
KENANSVILLE    CLEAR     42  20  41 NW3       30.16R
KINSTON        CLEAR     39  19  45 CALM      30.14R
NEW BERN       CLEAR     42  20  41 NW8       30.14R
RICHLANDS      CLEAR     41  21  45 CALM      30.15R
ROCKY MOUNT    CLEAR     41  15  35 NW9       30.14R
WASHINGTON     CLEAR     38  22  51 N5        30.15R
WHITEVILLE     CLEAR     47  24  40 CALM      30.12R

$$

AMZ130-135-150-152-154-156-158-170-250-252-270-ANZ085-086-088-633-658-670-290100-
MARINE OBSERVATIONS

STATION/POSITION TIME  TEMP    WIND        PRES    WAVE   SWELL
                       AIR SEA DIR/SP/G            HT/PER HT/PER
                 (UTC) (F)     (DEG/KT/KT) (MB)    (FT/S) (FT/S)
CHESAPEAKE LIGHT 0000   36     360/ 17/ 19 1020.5
64 E VA BEACH    2350   39 57  330/ 16/ 21 1018.8    6/ 7
DUCK             0000   39 42  320/ 11/ 13 1019.3
2 E DUCK         2311      42                N/A     4/ 8   2/11
10 NE DUCK       NOT AVBL
OREGON INLET     0000   40 46  310/ 12/ 18 1019.8
HATTERAS CG      0000   42 54  340/ 15/ 20 1020.2
CAPE LOOKOUT     0000   47     330/ 17/ 21 1019.2
BEAUFORT LAB     0000   46 56  340/  9/ 12 1018.9
27 SE WRIGHTSVLE 0000   49 65  340/ 19/ 23 1020.4
5 SE WRIGHTSVLE  0000   51 56  320/ 17/ 19 1019.3
225 S CAPE HAT   2350   58 69  280/ 12/ 19 1017.8   10/ 9  10/ 9
41 SE CHARLESTON 2350   57 68  310/ 17/ 23 1018.9    4/ 5   2/ 8

$$


USA.gov is the U.S. government's official web portal to all federal, state and local government web resources and services.